DW2488 Weather Reports


time (UTC)temp
C
wind
direction
speed
KPH
gust
KPH
rain 1hr
cm
rain 24hr
cm
rain mn
cm
humidity
%
barometer
mb
20260505090120 15 0 3.2 6.4 0.00 0.05 0.03 67 1020.1
20260505084615 15 0 1.6 6.4 0.00 0.05 0.03 66 1019.9
20260505083112 15 189 0.0 4.8 0.00 0.05 0.03 64 1019.7
20260505081611 16 0 3.2 6.4 0.00 0.05 0.03 62 1019.5
20260505080105 16 0 3.2 9.7 0.00 0.05 0.03 60 1019.2
20260505074559 17 0 3.2 8.0 0.00 0.05 0.03 56 1019.1
20260505073059 18 0 3.2 9.7 0.00 0.05 0.03 50 1018.8
20260505071555 20 281 1.6 6.4 0.00 0.05 0.03 49 1018.6
20260505070113 21 280 3.2 11.3 0.00 0.05 0.03 45 1018.4
20260505064545 22 271 6.4 12.9 0.00 0.05 0.03 42 1018.2
20260505063043 22 0 4.8 12.9 0.00 0.05 0.03 42 1018.0
20260505061539 22 0 6.4 17.7 0.00 0.05 0.03 43 1018.0
20260505060036 23 0 4.8 12.9 0.00 0.05 0.03 40 1017.9
20260505054530 23 0 4.8 14.5 0.00 0.05 0.03 41 1017.8
20260505053030 23 0 8.0 16.1 0.00 0.05 0.03 40 1017.8
20260505051529 23 0 6.4 16.1 0.00 0.05 0.03 40 1017.7
20260505041524 22 0 8.0 19.3 0.00 0.05 0.03 43 1017.1
20260505040025 22 0 8.0 17.7 0.00 0.05 0.03 42 1017.1
20260505034519 22 231 4.8 14.5 0.00 0.05 0.03 42 1017.0
20260505033019 22 270 8.0 19.3 0.00 0.05 0.03 41 1017.0
20260505031516 22 0 8.0 22.5 0.00 0.08 0.03 44 1017.2
20260505030015 22 0 4.8 16.1 0.00 0.10 0.03 45 1017.3
20260505024520 21 254 6.4 20.9 0.00 0.13 0.03 49 1017.2
20260505023014 21 276 6.4 14.5 0.00 0.13 0.03 49 1017.4
20260505021506 21 257 8.0 19.3 0.00 0.13 0.03 51 1017.7
20260505020000 20 238 11.3 20.9 0.00 0.13 0.03 54 1017.9
20260505014457 20 234 8.0 17.7 0.00 0.13 0.03 54 1017.9
20260505013001 20 257 6.4 20.9 0.00 0.15 0.03 56 1018.1
20260505011456 19 277 8.0 19.3 0.00 0.15 0.03 61 1018.3
20260505005953 18 0 9.7 20.9 0.00 0.15 0.03 58 1018.6
20260505004455 18 277 9.7 22.5 0.00 0.18 0.03 59 1018.9
20260505002950 18 0 12.9 22.5 0.00 0.20 0.03 59 1018.9
20260505001449 18 0 12.9 22.5 0.00 0.25 0.03 62 1019.0
20260504235949 17 0 8.0 24.1 0.00 0.33 0.03 62 1019.3
20260504234444 17 0 8.0 17.7 0.00 0.41 0.03 63 1019.1
20260504232950 16 263 12.9 32.2 0.00 0.51 0.03 65 1019.0
20260504231443 16 278 20.9 32.2 0.00 0.71 0.03 69 1018.5
20260504225941 15 267 17.7 29.0 0.00 0.89 0.03 71 1019.0
20260504224439 14 244 16.1 25.7 0.00 0.97 0.03 79 1018.9
20260504222935 11 258 8.0 24.1 0.03 0.99 0.03 95 1019.0
20260504221446 10 169 0.0 0.0 0.03 0.99 0.03 94 1019.0
20260504215916 9 169 0.0 3.2 0.03 0.99 0.03 94 1018.9
20260504214412 8 169 3.2 8.0 0.03 1.02 0.03 93 1018.7
20260504212917 8 0 0.0 4.8 0.00 0.99 0.00 93 1018.7
20260504211417 7 0 0.0 0.0 0.00 0.99 0.00 92 1018.3
20260504205916 7 0 0.0 0.0 0.00 0.99 0.00 92 1017.8
20260504204416 7 0 0.0 3.2 0.00 0.99 0.00 92 1017.4
20260504202917 7 0 1.6 4.8 0.00 0.99 0.00 92 1017.3
20260504201416 8 0 0.0 4.8 0.00 0.99 0.00 92 1017.0
20260504195917 8 0 0.0 3.2 0.00 0.99 0.00 92 1017.1
20260504194411 8 0 1.6 4.8 0.00 0.99 0.00 91 1016.9
20260504192912 8 0 1.6 4.8 0.00 0.99 0.00 92 1016.9
20260504191414 8 0 0.0 3.2 0.00 0.99 0.00 91 1016.8
20260504185916 8 0 0.0 3.2 0.00 0.99 0.00 91 1016.5
20260504182909 9 165 1.6 4.8 0.00 0.99 0.00 92 1016.3
20260504181416 9 0 1.6 3.2 0.00 0.99 0.00 92 1016.3
20260504175911 10 0 0.0 3.2 0.00 0.99 0.00 91 1016.5
20260504174410 10 0 0.0 4.8 0.00 0.99 0.00 92 1016.5
20260504172911 10 0 0.0 3.2 0.00 0.99 0.00 91 1016.5
20260504171416 10 0 0.0 0.0 0.00 0.99 0.00 91 1016.4
20260504141323 13 205 1.6 4.8 0.00 0.99 0.00 91 1016.9